Location: Buenos Aires
(34.6076°S, 58.4371°W)
Time: 13:03:17
(UTC-03:00)

Envisat - Pass Details

Date: 29 June 2021
Orbit: 764 x 766 km, 98.2° (Epoch: 03 August)

Event Time Altitude Azimuth Distance (km) Brightness Sun altitude
Rises 05:52:41 0° 1° (N) 3,216 6.4 -25.7°
Reaches altitude 10° 05:55:02 10° 355° (N) 2,299 5.5 -25.3°
Enters shadow 05:58:27 38° 328° (NNW) 1,159 3.7 -24.6°
